Portland, OR

4:54 PM PDT on June 18, 2018 (GMT -0700)
Portland International

Weather History for KPDX - June, 2018

Change the Weather History Date:

Wednesday, June 13, 2018

  Actual Average Record
Temperature  
Mean Temperature 64 °F 63 °F  
Max Temperature 68 °F 73 °F 97 °F (2002)
Min Temperature 59 °F 53 °F 42 °F (1976)
Degree Days  
Heating Degree Days 1 3  
Month to date heating degree days 38 51  
Since 1 June heating degree days 38 51  
Since 1 July heating degree days 3932 4238  
Cooling Degree Days 0 1  
Month to date cooling degree days 4 13  
Year to date cooling degree days 47 30  
Since 1 June cooling degree days 4 13  
Growing Degree Days 12 (Base 50)    
Moisture  
Dew Point 46 °F    
Average Humidity 54    
Maximum Humidity 69    
Minimum Humidity 39    
Precipitation  
Precipitation 0.00 in 0.06 in 0.89 in (1980)
Month to date precipitation 0.62 0.93  
Year to date precipitation 13.85 18.35  
Sea Level Pressure  
Sea Level Pressure 29.98 in    
Wind  
Wind Speed 7 mph (NE)    
Max Wind Speed 15 mph    
Max Gust Speed 19 mph    
Visibility 10 miles    
Events      
T = Trace of Precipitation, MM = Missing Value Source: NWS Daily Summary

Daily Weather History Graph

Daily Weather History Graph

Search for Another Location

Airport or City:

Astronomy

Jun. 13, 2018 Rise Set
Actual Time 5:20 AM PDT 9:00 PM PDT
Civil Twilight 4:42 AM PDT 9:38 PM PDT
Nautical Twilight 3:52 AM PDT 10:29 PM PDT
Astronomical Twilight 2:43 AM PDT 11:38 PM PDT
Moon 5:31 AM PDT (6/13) 8:58 PM PDT (6/13)
Length of Visible Light 16h 55m
Length of Day
15h 39m
Waning Crescent, 0% of the Moon is Illuminated
Jun 13
Waning Crescent
Jun 13
New
Jun 20
First Quarter
Jun 27
Full
Jul 6
Last Quarter

Hourly Weather History & Observations

Time (PDT) Temp. Dew Point Humidity Pressure Visibility Wind Dir Wind Speed Gust Speed Precip Events Conditions
12:53 AM 64.0 °F 44.1 °F 48% 29.94 in 10.0 mi Calm Calm - N/A   Mostly Cloudy
1:53 AM 62.1 °F 46.9 °F 58% 29.94 in 10.0 mi Calm Calm - N/A   Mostly Cloudy
2:53 AM 62.1 °F 42.1 °F 48% 29.94 in 10.0 mi South 5.8 mph - N/A   Overcast
3:53 AM 61.0 °F 42.1 °F 50% 29.93 in 10.0 mi SE 8.1 mph - N/A   Overcast
4:53 AM 61.0 °F 37.0 °F 41% 29.92 in 10.0 mi SSE 4.6 mph - N/A   Mostly Cloudy
5:53 AM 61.0 °F 36.0 °F 39% 29.93 in 10.0 mi SE 3.5 mph - N/A   Mostly Cloudy
6:53 AM 60.1 °F 39.0 °F 46% 29.93 in 10.0 mi SE 5.8 mph - N/A   Overcast
7:19 AM 60.1 °F 41.0 °F 49% 29.94 in 10.0 mi SSW 10.4 mph - N/A   Overcast
8:53 AM 59.0 °F 48.0 °F 67% 29.96 in 10.0 mi South 8.1 mph - N/A   Overcast
9:53 AM 59.0 °F 48.9 °F 69% 29.97 in 10.0 mi East 5.8 mph - N/A   Overcast
10:53 AM 61.0 °F 48.9 °F 64% 29.97 in 10.0 mi Variable 3.5 mph - N/A   Overcast
11:53 AM 60.1 °F 50.0 °F 69% 29.99 in 10.0 mi East 9.2 mph - N/A   Overcast
12:11 PM 62.1 °F 51.1 °F 67% 29.99 in 10.0 mi East 8.1 mph - N/A   Overcast
12:53 PM 63.0 °F 52.0 °F 67% 29.98 in 10.0 mi ENE 8.1 mph - N/A   Mostly Cloudy
1:53 PM 64.9 °F 50.0 °F 58% 29.98 in 10.0 mi NE 5.8 mph - N/A   Mostly Cloudy
2:53 PM 64.0 °F 50.0 °F 60% 29.99 in 10.0 mi North 5.8 mph - N/A   Mostly Cloudy
3:53 PM 66.9 °F 48.0 °F 51% 29.99 in 10.0 mi NW 9.2 mph - N/A   Mostly Cloudy
4:53 PM 66.9 °F 46.9 °F 49% 29.99 in 10.0 mi NW 10.4 mph - N/A   Mostly Cloudy
5:53 PM 66.0 °F 48.0 °F 52% 29.99 in 10.0 mi NNW 9.2 mph - N/A   Mostly Cloudy
6:53 PM 64.9 °F 44.1 °F 47% 29.99 in 10.0 mi NNW 10.4 mph - N/A   Mostly Cloudy
7:53 PM 64.0 °F 46.9 °F 54% 30.00 in 10.0 mi NNW 8.1 mph - N/A   Mostly Cloudy
8:53 PM 62.1 °F 46.0 °F 56% 30.02 in 10.0 mi NW 15.0 mph - N/A   Mostly Cloudy
9:53 PM 60.1 °F 46.9 °F 62% 30.04 in 10.0 mi NW 12.7 mph - N/A   Mostly Cloudy
10:53 PM 57.9 °F 46.9 °F 67% 30.05 in 10.0 mi Calm Calm - N/A   Scattered Clouds
11:53 PM 55.9 °F 46.9 °F 72% 30.06 in 10.0 mi NNW 4.6 mph - N/A   Scattered Clouds